Time,TemperatureF,DewpointF,PressureIn,WindDirection,WindDirectionDegrees,WindSpeedMPH,WindSpeedGustMPH,Humidity,HourlyPrecipIn,Conditions,Clouds,dailyrainin,SoftwareType,DateUTC
2013-08-17 00:01:00,77.7,47.1,30.03,South,180,2.7,-999.0,34,-99.99,,,0.00,Acu-Link.com,2013-08-17 06:01:00,
2013-08-17 00:16:00,77.2,47.4,30.03,SSW,202,2.2,-999.0,35,-99.99,,,0.00,Acu-Link.com,2013-08-17 06:16:00,
2013-08-17 00:31:00,76.6,46.9,30.03,SSW,202,2.7,-999.0,35,-99.99,,,0.00,Acu-Link.com,2013-08-17 06:31:00,
2013-08-17 00:46:00,76.6,46.1,30.02,SW,225,1.6,-999.0,34,-99.99,,,0.00,Acu-Link.com,2013-08-17 06:46:00,
2013-08-17 01:01:00,76.3,46.6,30.03,East,90,0.0,-999.0,35,-99.99,,,0.00,Acu-Link.com,2013-08-17 07:01:00,
2013-08-17 01:17:00,75.7,46.9,30.03,East,90,1.6,-999.0,36,-99.99,,,0.00,Acu-Link.com,2013-08-17 07:17:00,
2013-08-17 01:32:00,75.4,46.6,30.03,SSW,202,1.6,-999.0,36,-99.99,,,0.00,Acu-Link.com,2013-08-17 07:32:00,
2013-08-17 01:47:00,78.8,46.4,30.02,South,180,6.7,-999.0,32,-99.99,,,0.00,Acu-Link.com,2013-08-17 07:47:00,
2013-08-17 02:02:00,79.9,45.7,30.02,WNW,292,4.3,-999.0,30,-99.99,,,0.00,Acu-Link.com,2013-08-17 08:02:00,
2013-08-17 02:17:00,77.9,48.0,30.04,East,90,4.7,-999.0,35,-99.99,,,0.00,Acu-Link.com,2013-08-17 08:17:00,
2013-08-17 02:33:00,76.1,50.7,30.04,West,270,1.1,-999.0,41,-99.99,,,0.00,Acu-Link.com,2013-08-17 08:33:00,
2013-08-17 02:48:00,76.1,50.0,30.04,NW,315,3.8,-999.0,40,-99.99,,,0.00,Acu-Link.com,2013-08-17 08:48:00,
2013-08-17 03:03:00,75.2,49.2,30.05,North,0,4.7,-999.0,40,-99.99,,,0.00,Acu-Link.com,2013-08-17 09:03:00,
2013-08-17 03:19:00,74.3,51.6,30.05,SSW,202,0.0,-999.0,45,-99.99,,,0.00,Acu-Link.com,2013-08-17 09:19:00,
2013-08-17 03:34:00,73.8,49.9,30.03,NE,45,5.8,-999.0,43,-99.99,,,0.00,Acu-Link.com,2013-08-17 09:34:00,
2013-08-17 03:49:00,74.1,48.9,30.05,NNW,337,1.6,-999.0,41,-99.99,,,0.00,Acu-Link.com,2013-08-17 09:49:00,
2013-08-17 04:04:00,78.1,48.2,30.05,SE,135,2.2,-999.0,35,-99.99,,,0.00,Acu-Link.com,2013-08-17 10:04:00,
2013-08-17 04:19:00,75.0,49.0,30.04,NNE,22,5.1,-999.0,40,-99.99,,,0.00,Acu-Link.com,2013-08-17 10:19:00,
2013-08-17 04:34:00,74.5,49.9,30.04,SE,135,1.1,-999.0,42,-99.99,,,0.00,Acu-Link.com,2013-08-17 10:34:00,
2013-08-17 04:50:00,74.1,49.5,30.02,SW,225,2.2,-999.0,42,-99.99,,,0.00,Acu-Link.com,2013-08-17 10:50:00,
2013-08-17 05:05:00,73.9,49.4,30.02,ENE,67,2.2,-999.0,42,-99.99,,,0.00,Acu-Link.com,2013-08-17 11:05:00,
2013-08-17 05:20:00,74.3,49.1,30.03,WNW,292,3.1,-999.0,41,-99.99,,,0.00,Acu-Link.com,2013-08-17 11:20:00,
2013-08-17 05:35:00,74.7,50.0,30.03,WNW,292,6.7,-999.0,42,-99.99,,,0.00,Acu-Link.com,2013-08-17 11:35:00,
2013-08-17 05:50:00,74.3,50.3,30.03,SW,225,1.1,-999.0,43,-99.99,,,0.00,Acu-Link.com,2013-08-17 11:50:00,
2013-08-17 06:06:00,73.2,50.6,30.04,ENE,67,0.0,-999.0,45,-99.99,,,0.00,Acu-Link.com,2013-08-17 12:06:00,
2013-08-17 06:21:00,72.7,51.3,30.04,NE,45,2.2,-999.0,47,-99.99,,,0.00,Acu-Link.com,2013-08-17 12:21:00,
2013-08-17 06:36:00,72.0,49.4,30.05,NE,45,3.8,-999.0,45,-99.99,,,0.00,Acu-Link.com,2013-08-17 12:36:00,
2013-08-17 06:51:00,72.0,48.8,30.05,NNW,337,3.1,-999.0,44,-99.99,,,0.00,Acu-Link.com,2013-08-17 12:51:00,
2013-08-17 07:06:00,73.4,48.3,30.06,NW,315,2.7,-999.0,41,-99.99,,,0.00,Acu-Link.com,2013-08-17 13:06:00,
2013-08-17 07:22:00,73.8,49.2,30.06,NNW,337,3.8,-999.0,42,-99.99,,,0.00,Acu-Link.com,2013-08-17 13:22:00,
2013-08-17 07:37:00,75.4,50.0,30.06,East,90,2.2,-999.0,41,-99.99,,,0.00,Acu-Link.com,2013-08-17 13:37:00,
2013-08-17 07:52:00,77.4,51.8,30.06,North,0,2.2,-999.0,41,-99.99,,,0.00,Acu-Link.com,2013-08-17 13:52:00,
2013-08-17 08:07:00,80.2,51.6,30.06,ENE,67,3.1,-999.0,37,-99.99,,,0.00,Acu-Link.com,2013-08-17 14:07:00,
2013-08-17 08:23:00,81.7,52.1,30.06,ENE,67,2.2,-999.0,36,-99.99,,,0.00,Acu-Link.com,2013-08-17 14:23:00,
2013-08-17 08:38:00,85.1,53.5,30.07,East,90,2.7,-999.0,34,-99.99,,,0.00,Acu-Link.com,2013-08-17 14:38:00,
2013-08-17 08:53:00,83.7,53.1,30.07,NE,45,3.1,-999.0,35,-99.99,,,0.00,Acu-Link.com,2013-08-17 14:53:00,
2013-08-17 09:08:00,82.8,52.3,30.07,East,90,0.0,-999.0,35,-99.99,,,0.00,Acu-Link.com,2013-08-17 15:08:00,
2013-08-17 09:23:00,80.6,51.2,30.08,East,90,3.8,-999.0,36,-99.99,,,0.00,Acu-Link.com,2013-08-17 15:23:00,
2013-08-17 09:39:00,82.6,52.1,30.08,South,180,3.8,-999.0,35,-99.99,,,0.00,Acu-Link.com,2013-08-17 15:39:00,
2013-08-17 09:54:00,83.5,50.5,30.07,East,90,3.8,-999.0,32,-99.99,,,0.00,Acu-Link.com,2013-08-17 15:54:00,
2013-08-17 10:09:00,83.8,51.6,30.07,SSE,157,3.1,-999.0,33,-99.99,,,0.00,Acu-Link.com,2013-08-17 16:09:00,
2013-08-17 10:24:00,85.5,50.5,30.07,East,90,5.1,-999.0,30,-99.99,,,0.00,Acu-Link.com,2013-08-17 16:24:00,
2013-08-17 10:39:00,86.7,50.6,30.07,South,180,2.2,-999.0,29,-99.99,,,0.00,Acu-Link.com,2013-08-17 16:39:00,
2013-08-17 10:55:00,87.1,50.0,30.07,SSW,202,5.1,-999.0,28,-99.99,,,0.00,Acu-Link.com,2013-08-17 16:55:00,
2013-08-17 11:10:00,87.8,50.6,30.07,South,180,2.7,-999.0,28,-99.99,,,0.00,Acu-Link.com,2013-08-17 17:10:00,
2013-08-17 11:25:00,88.7,51.4,30.06,WSW,247,5.1,-999.0,28,-99.99,,,0.00,Acu-Link.com,2013-08-17 17:25:00,
2013-08-17 11:40:00,89.2,50.8,30.06,South,180,2.2,-999.0,27,-99.99,,,0.00,Acu-Link.com,2013-08-17 17:40:00,
2013-08-17 11:55:00,90.5,50.9,30.05,SSE,157,3.1,-999.0,26,-99.99,,,0.00,Acu-Link.com,2013-08-17 17:55:00,
2013-08-17 12:11:00,91.2,51.5,30.04,SSE,157,3.1,-999.0,26,-99.99,,,0.00,Acu-Link.com,2013-08-17 18:11:00,
2013-08-17 12:26:00,90.9,52.2,30.03,South,180,6.7,-999.0,27,-99.99,,,0.00,Acu-Link.com,2013-08-17 18:26:00,
2013-08-17 12:41:00,92.7,50.5,30.02,SSE,157,6.7,-999.0,24,-99.99,,,0.00,Acu-Link.com,2013-08-17 18:41:00,
2013-08-17 12:56:00,94.1,50.6,30.01,SSE,157,4.7,-999.0,23,-99.99,,,0.00,Acu-Link.com,2013-08-17 18:56:00,
2013-08-17 13:12:00,94.5,50.9,30.00,ESE,112,3.8,-999.0,23,-99.99,,,0.00,Acu-Link.com,2013-08-17 19:12:00,
2013-08-17 13:27:00,93.7,50.3,30.00,West,270,3.1,-999.0,23,-99.99,,,0.00,Acu-Link.com,2013-08-17 19:27:00,
2013-08-17 13:42:00,96.3,49.9,29.98,ESE,112,4.3,-999.0,21,-99.99,,,0.00,Acu-Link.com,2013-08-17 19:42:00,
2013-08-17 13:57:00,95.5,49.3,29.97,SSE,157,2.2,-999.0,21,-99.99,,,0.00,Acu-Link.com,2013-08-17 19:57:00,
2013-08-17 14:12:00,97.2,49.4,29.96,ESE,112,4.7,-999.0,20,-99.99,,,0.00,Acu-Link.com,2013-08-17 20:12:00,
2013-08-17 14:28:00,96.4,48.8,29.95,West,270,2.7,-999.0,20,-99.99,,,0.00,Acu-Link.com,2013-08-17 20:28:00,
2013-08-17 14:43:00,96.8,46.3,29.94,NNE,22,4.3,-999.0,18,-99.99,,,0.00,Acu-Link.com,2013-08-17 20:43:00,
2013-08-17 14:58:00,96.6,47.5,29.93,ESE,112,2.2,-999.0,19,-99.99,,,0.00,Acu-Link.com,2013-08-17 20:58:00,
2013-08-17 15:13:00,97.3,45.2,29.92,South,180,2.2,-999.0,17,-99.99,,,0.00,Acu-Link.com,2013-08-17 21:13:00,
2013-08-17 15:28:00,98.1,44.2,29.93,East,90,6.3,-999.0,16,-99.99,,,0.00,Acu-Link.com,2013-08-17 21:28:00,
2013-08-17 15:44:00,100.2,44.2,29.92,NNE,22,3.8,-999.0,15,-99.99,,,0.00,Acu-Link.com,2013-08-17 21:44:00,
2013-08-17 15:59:00,95.5,45.2,29.92,NNE,22,8.9,-999.0,18,-99.99,,,0.00,Acu-Link.com,2013-08-17 21:59:00,
2013-08-17 16:14:00,93.0,46.0,29.92,East,90,6.3,-999.0,20,-99.99,,,0.00,Acu-Link.com,2013-08-17 22:14:00,
2013-08-17 16:29:00,92.8,45.8,29.91,NE,45,4.7,-999.0,20,-99.99,,,0.00,Acu-Link.com,2013-08-17 22:29:00,
2013-08-17 16:44:00,94.6,43.0,29.91,NE,45,1.1,-999.0,17,-99.99,,,0.00,Acu-Link.com,2013-08-17 22:44:00,
2013-08-17 17:00:00,93.7,43.8,29.91,West,270,4.3,-999.0,18,-99.99,,,0.00,Acu-Link.com,2013-08-17 23:00:00,
2013-08-17 17:15:00,95.2,46.4,29.90,SSE,157,4.3,-999.0,19,-99.99,,,0.00,Acu-Link.com,2013-08-17 23:15:00,
2013-08-17 17:30:00,96.1,45.7,29.89,West,270,2.7,-999.0,18,-99.99,,,0.00,Acu-Link.com,2013-08-17 23:30:00,
2013-08-17 17:45:00,100.8,46.3,29.90,West,270,5.1,-999.0,16,-99.99,,,0.00,Acu-Link.com,2013-08-17 23:45:00,
2013-08-17 18:01:00,100.9,44.7,29.89,South,180,3.1,-999.0,15,-99.99,,,0.00,Acu-Link.com,2013-08-18 00:01:00,
2013-08-17 18:16:00,100.2,45.9,29.89,SW,225,1.6,-999.0,16,-99.99,,,0.00,Acu-Link.com,2013-08-18 00:16:00,
2013-08-17 18:31:00,94.8,44.7,29.89,WSW,247,3.1,-999.0,18,-99.99,,,0.00,Acu-Link.com,2013-08-18 00:31:00,
2013-08-17 18:46:00,93.9,43.9,29.89,SW,225,1.1,-999.0,18,-99.99,,,0.00,Acu-Link.com,2013-08-18 00:46:00,
2013-08-17 19:01:00,93.2,44.8,29.89,SW,225,0.0,-999.0,19,-99.99,,,0.00,Acu-Link.com,2013-08-18 01:01:00,
2013-08-17 19:17:00,91.9,43.7,29.89,West,270,0.0,-999.0,19,-99.99,,,0.00,Acu-Link.com,2013-08-18 01:17:00,
2013-08-17 19:32:00,90.9,44.2,29.90,WSW,247,2.7,-999.0,20,-99.99,,,0.00,Acu-Link.com,2013-08-18 01:32:00,
2013-08-17 19:47:00,90.0,43.5,29.90,West,270,0.0,-999.0,20,-99.99,,,0.00,Acu-Link.com,2013-08-18 01:47:00,
2013-08-17 20:02:00,89.2,44.2,29.90,ESE,112,0.0,-999.0,21,-99.99,,,0.00,Acu-Link.com,2013-08-18 02:02:00,
2013-08-17 20:17:00,87.4,45.1,29.91,SSW,202,1.6,-999.0,23,-99.99,,,0.00,Acu-Link.com,2013-08-18 02:17:00,
2013-08-17 20:33:00,86.9,45.7,29.92,West,270,5.1,-999.0,24,-99.99,,,0.00,Acu-Link.com,2013-08-18 02:33:00,
2013-08-17 20:48:00,86.7,44.5,29.93,West,270,2.2,-999.0,23,-99.99,,,0.00,Acu-Link.com,2013-08-18 02:48:00,
2013-08-17 21:03:00,82.8,53.1,29.94,SSW,202,1.1,-999.0,36,-99.99,,,0.00,Acu-Link.com,2013-08-18 03:03:00,
2013-08-17 21:18:00,79.5,53.7,29.96,West,270,2.2,-999.0,41,-99.99,,,0.01,Acu-Link.com,2013-08-18 03:18:00,
2013-08-17 21:33:00,80.8,50.6,29.96,SW,225,4.3,-999.0,35,-99.99,,,0.01,Acu-Link.com,2013-08-18 03:33:00,
2013-08-17 21:49:00,80.6,51.9,29.97,West,270,6.7,-999.0,37,-99.99,,,0.01,Acu-Link.com,2013-08-18 03:49:00,
2013-08-17 22:04:00,77.4,53.7,29.98,WSW,247,9.8,-999.0,44,-99.99,,,0.01,Acu-Link.com,2013-08-18 04:04:00,
2013-08-17 22:19:00,77.2,53.6,29.99,WSW,247,11.4,-999.0,44,-99.99,,,0.02,Acu-Link.com,2013-08-18 04:19:00,
2013-08-17 22:34:00,76.3,52.7,29.99,WNW,292,9.8,-999.0,44,-99.99,,,0.02,Acu-Link.com,2013-08-18 04:34:00,
2013-08-17 22:50:00,76.1,52.6,30.00,WNW,292,14.1,-999.0,44,-99.99,,,0.02,Acu-Link.com,2013-08-18 04:50:00,
2013-08-17 23:05:00,75.7,52.3,30.01,West,270,8.9,-999.0,44,-99.99,,,0.02,Acu-Link.com,2013-08-18 05:05:00,
2013-08-17 23:20:00,75.6,52.7,30.03,WNW,292,4.3,-999.0,45,-99.99,,,0.02,Acu-Link.com,2013-08-18 05:20:00,
2013-08-17 23:35:00,74.7,52.5,30.03,SW,225,5.1,-999.0,46,-99.99,,,0.02,Acu-Link.com,2013-08-18 05:35:00,
2013-08-17 23:50:00,74.3,52.7,30.03,West,270,4.3,-999.0,47,-99.99,,,0.02,Acu-Link.com,2013-08-18 05:50:00,